Location: Atlantic Beach
(40.5890°N, 73.7290°W)
Time: 08:50:01
(UTC+00:00)

Envisat - Pass Details

Date: 22 January 2021
Orbit: 764 x 766 km, 98.1° (Epoch: 24 February)

Event Time Altitude Azimuth Distance (km) Brightness Sun altitude
Rises 09:47:47 0° 25° (NNE) 3,239 6.5 -27.3°
Reaches altitude 10° 09:50:28 10° 38° (NE) 2,308 5.9 -26.8°
Maximum altitude 09:54:42 26° 95° (E) 1,470 5.1 -26.0°
Drops below altitude 10° 09:58:54 10° 151° (SSE) 2,293 5.9 -25.2°
Sets 10:01:32 0° 164° (SSE) 3,214 6.5 -24.7°
